THOR ABLESTAR DEB, 252

Orbit data source: Space-Track

THOR ABLESTAR DEB, 252 is space debris in LEO originally from a launch on Thu, 29 Jun 1961 UTC launched from the Air Force Eastern Test Range (AFETR). Debris objects in space refer to the collection of defunct objects orbiting the Earth. Examples of debris include non-operational satellites, rocket bodies, and fragments generated from explosions, collisions, or faulty payload assembly.

Loading next visibility...
Identifier
252, 1961-015CD
Orbit
LEO
Country
Flag of USUS
Related business
Manufacturer
Unknown
Mission
Spacecraft
Bus & Motor
Unknown
Mass
Unknown
Launch date (UTC)
1961-06-29 (64 years ago)
Launch vehicle
Unknown
Launch site
Air Force Eastern Test Range (AFETR)
Object type
Payload
Rocket body
Debris
Shape & HBR
Unknown shape, 0.4 m
Radar Cross Section
Small (<0.1 m²)

Expand to show TLE details & history
Last TLE update: 9 hours ago

TLE from 9 hours ago
0 THOR ABLESTAR DEB
1 00252U 61015CD  25340.93040186  .00000398  00000-0  46531-3 0  9999
2 00252  67.0786 280.6634 0055460 336.8660  95.6504 13.77693237224843
Epoch: 2025-12-06T22:19Z
TLE epoch observation values (Epoch: 2025-12-06T22:19:46.720Z)
Latitude
61.93517°
Longitude
-78.14074°
Altitude
986.11 km
Speed
7.363 km/s
True Right ascension
22h 11m 01s
True Declination
61° 47' 48"
Sunlit
Object was in daylight at epoch
Visualization orbit readout
Latitude
Unknown
Longitude
Unknown
Altitude
Unknown
Speed
Unknown
Apparent Right ascension
Unknown
Apparent Declination
Unknown
Sunlit
N/A
Visualization observer readout
Local Sidereal Time
05:06:13
Azimuth
Unknown
Elevation
Unknown
Doppler factor
Unknown
Orbital elements
Apogee altitude
1,011.207 km
Perigee altitude
929.697 km
Semi-major axis
7,348.589 km
Eccentricity
0.00555
Inclination
67.0786°
RAAN
280.6634°
Arg. of periapsis
336.866°
True anomaly
96.28239°
Mean anomaly
95.6504°
Eccentric anomaly
95.96644°
Mean motion
3.44538 °/min
Orbital period
104.49 mins
BSTAR
0.00046531
Loading maneuver chart data...
Computing Atmospheric mass density...

Documentation

Showing up to 5 results
|